[[{"header":{"parameterUnit":"m.s-1","parameterCategory":1,"la1":30.2991,"la2":30.254,"lo1":-89.0895,"lo2":-89.0444,"dy":0.0017,"dx":0.0017,"nx":28,"ny":28,"refTime":"2023-10-15T21:00:00:Z","depth":0,"parameterNumber":2,"parameterNumberName":"U-component_of_WINDS"},"data":[0,0,0,0,0,0,0,0,0,0,0,0,0,0,0,0,0,0,0,0,0,0,0,0,0,0,0,0,0,0,0,0,0,0,0,0,0,0,0,0,0,0,0,0,0,0,0,0,0,0,0,0,0,0,0,0,0,0,2.4167,2.4167,0,2.4162,2.4162,2.4162,2.4134,2.4133,2.4133,2.4132,2.4127,2.4127,2.4127,0,0,0,0,0,0,0,0,0,0,0,0,0,2.4153,2.4153,2.4167,2.4167,2.4167,2.4162,2.4162,2.4162,2.4134,2.4133,2.4132,2.4132,2.4126,2.4127,2.4128,0,0,0,0,0,0,0,0,0,0,0,0,0,2.4154,2.4153,2.4167,2.4152,2.4151,2.4162,2.4162,2.4162,2.4134,2.4133,2.4132,2.4131,2.4126,2.4127,2.4128,2.4152,0,0,2.413,2.413,0,0,0,0,0,0,0,0,2.4154,2.4155,2.4154,2.4153,2.4152,2.4148,2.4155,2.4159,2.4134,2.4141,2.4132,2.4131,2.4134,2.4134,2.4136,2.4152,2.4152,2.413,2.413,2.4131,2.4131,0,0,0,0,0,0,0,2.4154,2.4155,2.4165,2.4155,2.4153,2.4146,2.4145,2.4156,2.4143,2.414,2.4138,2.4138,2.4133,2.4135,2.4135,2.4152,2.413,2.4131,2.4131,2.4131,2.419,2.4191,0,0,0,0,0,0,2.4156,2.4155,2.4165,2.4165,2.4151,2.4147,2.4146,2.415,2.4143,2.4141,2.4139,2.4136,2.4134,2.4134,2.4135,2.4165,2.4131,2.4131,2.4132,2.4189,2.4191,2.4192,0,0,0,0,0,0,2.4156,2.4157,2.4165,2.4159,2.416,2.4149,2.4153,2.415,2.4152,2.4142,2.414,2.4142,2.4133,2.4134,2.4149,2.4164,2.4132,2.4132,2.4188,2.419,2.4191,2.4223,0,0,0,0,0,0,2.4156,2.4157,2.4166,2.416,2.416,2.4179,2.4154,2.4151,2.4153,2.415,2.4145,2.4143,2.4133,2.4148,2.4149,2.4164,2.4133,2.4186,2.4189,2.4191,2.4221,2.4226,2.423,0,0,0,0,0,2.4155,2.4175,2.4167,2.4168,2.4171,2.418,2.418,2.4168,2.4155,2.4164,2.4158,2.4143,2.4162,2.415,2.4151,2.4166,2.4185,2.4188,2.4191,2.4219,2.4225,2.423,0,0,0,0,0,0,2.4183,2.4174,2.4165,2.4183,2.4183,2.4175,2.4186,2.4175,2.4177,2.4175,2.4159,2.4158,2.4176,2.4173,2.4159,2.4191,2.4171,2.4174,2.4192,2.4198,2.4203,2.4203,2.4134,0,0,0,0,0,2.4191,2.4199,2.4191,2.4208,2.4208,2.4197,2.42,2.4191,2.419,2.4189,2.4184,2.4184,2.419,2.4194,2.4198,2.4221,2.4219,2.4232,2.4237,2.4241,2.4243,2.4256,2.4262,2.42,2.42,2.42,0,0,2.4208,2.4204,2.421,2.4213,2.4211,2.422,2.4197,2.4207,2.4213,2.4191,2.4205,2.4201,2.42,2.4219,2.4227,2.4216,2.426,2.4244,2.4247,2.4248,2.4259,2.4265,2.427,2.4202,2.4202,2.4201,0,0,2.4244,2.4241,2.4256,2.4255,2.4254,2.4247,2.425,2.4245,2.4242,2.4256,2.424,2.4248,2.4258,2.4258,2.4259,2.4297,2.4284,2.4299,2.4323,2.4336,2.4341,2.4345,2.4359,2.4365,2.4302,2.4302,2.4302,0,2.4265,2.4277,2.4265,2.4276,2.4278,2.426,2.4275,2.4274,2.4274,2.4277,2.4266,2.4279,2.4277,2.4296,2.4306,2.4307,2.4311,2.4299,2.4341,2.4345,2.4349,2.4363,2.4368,2.4304,2.4304,2.4303,2.4303,0,2.4304,2.4313,2.4325,2.4326,2.433,2.4343,2.4333,2.4338,2.433,2.4324,2.4339,2.4336,2.4341,2.4345,2.4335,2.4363,2.4357,2.4344,2.4324,2.4357,2.437,2.4375,2.4306,2.4306,2.4305,2.4305,0,0,2.4355,2.4351,2.4355,2.4356,2.4354,2.4361,2.4374,2.4379,2.4384,2.4386,2.4396,2.4407,2.4395,2.4397,2.4388,2.4399,2.443,2.4384,2.4384,2.4393,2.4462,2.4472,2.4478,2.4422,2.4423,2.4424,2.4462,0,2.4389,2.4411,2.4401,2.4424,2.4433,2.4416,2.4428,2.4428,2.4424,2.4431,2.4426,2.4434,2.4418,2.4419,2.4429,2.4424,2.4444,2.4422,2.4433,2.4433,2.4433,2.4484,2.4494,2.453,2.4467,2.4468,2.4468,0,2.4432,2.4436,2.446,2.4458,2.4461,2.4472,2.4476,2.4483,2.4484,2.448,2.4483,2.4472,2.4485,2.4466,2.4485,2.447,2.4474,2.4473,2.4474,2.4474,2.4452,2.4486,2.4541,2.4547,2.4476,2.4475,2.4474,0,2.4468,2.4479,2.4495,2.4497,2.4494,2.4502,2.4502,2.4501,2.4506,2.451,2.4513,2.4518,2.4521,2.4526,2.4518,2.4504,2.4538,2.4518,2.4536,2.4536,2.4543,2.4543,2.46,2.4546,2.4546,2.4546,2.4545,0,2.4507,2.4523,2.4512,2.4521,2.4539,2.4528,2.4545,2.4543,2.4543,2.4553,2.4539,2.4548,2.4536,2.4545,2.4539,2.4556,2.4557,2.4555,2.4553,2.4556,2.4556,2.4558,2.4555,2.4547,2.4547,2.4546,2.4546,0,2.455,2.4543,2.4559,2.4557,2.4556,2.4569,2.4567,2.4576,2.4572,2.4585,2.4587,2.458,2.459,2.4582,2.4591,2.4587,2.4609,2.4604,2.4609,2.4608,2.4626,2.4625,2.4687,2.4695,2.4636,2.4636,2.4637,0,2.4575,2.4587,2.4586,2.4592,2.4592,2.4601,2.4606,2.4596,2.4602,2.4604,2.4614,2.4622,2.4628,2.4645,2.4641,2.4648,2.4643,2.4664,2.4644,2.4647,2.4644,2.4643,2.4645,2.4668,2.4669,2.4669,2.467,0,2.4621,2.4618,2.4625,2.4632,2.4638,2.4643,2.4646,2.4652,2.4642,2.4649,2.4659,2.4664,2.4674,2.4683,2.4689,2.4689,2.4678,2.4676,2.4681,2.4684,2.4687,2.4686,2.4621,2.4675,2.4674,2.4674,2.4674,2.4673,2.4656,2.4667,2.4668,2.4677,2.4679,2.4683,2.4692,2.469,2.4698,2.4705,2.4699,2.4712,2.4714,2.4721,2.4722,2.4732,2.4723,2.473,2.4732,2.4733,2.4736,2.4686,2.4733,2.4733,2.4733,2.4733,2.4733,0,2.4702,2.4703,2.4711,2.4717,2.4725,2.4715,2.4719,2.4726,2.4737,2.4739,2.4746,2.4759,2.4768,2.4765,2.4774,2.4782,2.4777,2.4785,2.4784,2.4784,2.4743,2.4739,2.4788,2.4788,2.4788,2.4788,2.4788,2.4788,2.4727,2.4744,2.4741,2.476,2.476,2.4772,2.4776,2.478,2.4782,2.4797,2.4804,2.4803,2.4804,2.4813,2.4821,2.482,2.4824,2.4833,2.4831,2.4792,2.4787,2.4782,2.4777,2.4834,2.4834,2.4871,2.4871,2.4871]},{"header":{"parameterUnit":"m.s-1","parameterCategory":1,"la1":30.2991,"la2":30.254,"lo1":-89.0895,"lo2":-89.0444,"dy":0.0017,"dx":0.0017,"nx":28,"ny":28,"refTime":"2023-10-15T21:00:00:Z","depth":0,"parameterNumber":3,"parameterNumberName":"V-component_of_WINDS"},"data":[0,0,0,0,0,0,0,0,0,0,0,0,0,0,0,0,0,0,0,0,0,0,0,0,0,0,0,0,0,0,0,0,0,0,0,0,0,0,0,0,0,0,0,0,0,0,0,0,0,0,0,0,0,0,0,0,0,0,-5.7943,-5.7944,0,-5.803,-5.8031,-5.8032,-5.8029,-5.8028,-5.8027,-5.8026,-5.811,-5.8113,-5.8116,0,0,0,0,0,0,0,0,0,0,0,0,0,-5.7771,-5.7774,-5.7943,-5.7944,-5.7945,-5.803,-5.8031,-5.8032,-5.8029,-5.8028,-5.8027,-5.8025,-5.8108,-5.8112,-5.8116,0,0,0,0,0,0,0,0,0,0,0,0,0,-5.7851,-5.7775,-5.7943,-5.7954,-5.7956,-5.803,-5.8031,-5.8033,-5.803,-5.8028,-5.8026,-5.8024,-5.8107,-5.8112,-5.8117,-5.8184,0,0,-5.8132,-5.8134,0,0,0,0,0,0,0,0,-5.7846,-5.7857,-5.7951,-5.7954,-5.7956,-5.8017,-5.8001,-5.8083,-5.803,-5.8002,-5.8026,-5.8024,-5.808,-5.8087,-5.8107,-5.8188,-5.8191,-5.8133,-5.8136,-5.8138,-5.8139,0,0,0,0,0,0,0,-5.7841,-5.7853,-5.7977,-5.7953,-5.7955,-5.7954,-5.7963,-5.8017,-5.8049,-5.8004,-5.8004,-5.8015,-5.8081,-5.8102,-5.8109,-5.8192,-5.8133,-5.8137,-5.814,-5.8142,-5.8334,-5.8336,0,0,0,0,0,0,-5.7833,-5.7849,-5.7975,-5.798,-5.7896,-5.7958,-5.7969,-5.7999,-5.8049,-5.8055,-5.8016,-5.8014,-5.8095,-5.8103,-5.8112,-5.8195,-5.8138,-5.8143,-5.8145,-5.8332,-5.8334,-5.8337,0,0,0,0,0,0,-5.783,-5.7845,-5.7971,-5.7914,-5.793,-5.7963,-5.7997,-5.8002,-5.8023,-5.8058,-5.8064,-5.8032,-5.8094,-5.8105,-5.8167,-5.8197,-5.8145,-5.8149,-5.8329,-5.8333,-5.8336,-5.836,0,0,0,0,0,0,-5.7825,-5.7843,-5.7869,-5.7915,-5.7934,-5.8025,-5.7999,-5.8005,-5.8033,-5.8031,-5.8075,-5.808,-5.8093,-5.8159,-5.8172,-5.8203,-5.8153,-5.8327,-5.8331,-5.8335,-5.8356,-5.8363,-5.8369,0,0,0,0,0,-5.7819,-5.7871,-5.7871,-5.7886,-5.7967,-5.8027,-5.8038,-5.8053,-5.8035,-5.8062,-5.8084,-5.8079,-5.8192,-5.8166,-5.818,-5.8213,-5.8325,-5.833,-5.8334,-5.8353,-5.8362,-5.8369,0,0,0,0,0,0,-5.7826,-5.7877,-5.7877,-5.7947,-5.7983,-5.8027,-5.806,-5.8061,-5.8101,-5.8098,-5.8113,-5.8123,-5.8185,-5.8205,-5.8175,-5.8281,-5.8256,-5.8264,-5.8266,-5.8274,-5.8281,-5.8274,-5.8157,0,0,0,0,0,-5.7836,-5.7882,-5.7924,-5.7981,-5.7999,-5.8027,-5.8053,-5.8062,-5.8099,-5.8114,-5.8141,-5.8176,-5.822,-5.8248,-5.829,-5.8359,-5.8369,-5.839,-5.8396,-5.8401,-5.8407,-5.8447,-5.8457,-5.8352,-5.8352,-5.8352,0,0,-5.7856,-5.789,-5.7917,-5.7983,-5.8012,-5.8058,-5.8039,-5.8088,-5.8123,-5.8121,-5.8182,-5.8203,-5.8243,-5.831,-5.834,-5.8328,-5.8439,-5.8407,-5.8411,-5.8415,-5.8453,-5.8463,-5.8471,-5.8355,-5.8355,-5.8354,0,0,-5.7917,-5.7947,-5.7999,-5.803,-5.8075,-5.8094,-5.8106,-5.8151,-5.8165,-5.8227,-5.8227,-5.8268,-5.8342,-5.8372,-5.8396,-5.8472,-5.8469,-5.8485,-5.8518,-5.8557,-5.8565,-5.8572,-5.86,-5.8609,-5.8491,-5.8491,-5.8491,0,-5.7936,-5.8007,-5.8025,-5.8076,-5.8105,-5.8108,-5.8161,-5.8188,-5.8244,-5.8264,-5.8251,-5.8346,-5.8373,-5.8447,-5.8466,-5.8486,-5.85,-5.848,-5.8563,-5.857,-5.8577,-5.8604,-5.8614,-5.8493,-5.8493,-5.8493,-5.8492,0,-5.8029,-5.8078,-5.8115,-5.8172,-5.8205,-5.8256,-5.8281,-5.8312,-5.8319,-5.8338,-5.8402,-5.8435,-5.8485,-5.8503,-5.8509,-5.8578,-5.857,-5.856,-5.8534,-5.8589,-5.8614,-5.8624,-5.8495,-5.8495,-5.8494,-5.8494,0,0,-5.8095,-5.8163,-5.8176,-5.8203,-5.8255,-5.8293,-5.8344,-5.8395,-5.8422,-5.8461,-5.8504,-5.8569,-5.8561,-5.8589,-5.8598,-5.8632,-5.8691,-5.8617,-5.8619,-5.863,-5.877,-5.8778,-5.8789,-5.8689,-5.8691,-5.8693,-5.8767,0,-5.8161,-5.8255,-5.8274,-5.8354,-5.8401,-5.8406,-5.8451,-5.8487,-5.8507,-5.8549,-5.8571,-5.8617,-5.8602,-5.8619,-5.8653,-5.8676,-5.8719,-5.8671,-5.8729,-5.8731,-5.8719,-5.8802,-5.881,-5.8878,-5.8777,-5.8779,-5.878,0,-5.8251,-5.8296,-5.8382,-5.843,-5.845,-5.849,-5.8539,-5.8579,-5.862,-5.8633,-5.8666,-5.8672,-5.8726,-5.8699,-5.8773,-5.874,-5.8765,-5.878,-5.8783,-5.8789,-5.8758,-5.881,-5.89,-5.8911,-5.8795,-5.8794,-5.8793,0,-5.8292,-5.8372,-5.8435,-5.8458,-5.8514,-5.8543,-5.8568,-5.8608,-5.8638,-5.868,-5.87,-5.8748,-5.8774,-5.881,-5.8829,-5.8808,-5.8902,-5.8876,-5.8913,-5.8913,-5.8932,-5.893,-5.9027,-5.8948,-5.8948,-5.8948,-5.8947,0,-5.8364,-5.8416,-5.8454,-5.8493,-5.8552,-5.8573,-5.8631,-5.8655,-5.8691,-5.8733,-5.874,-5.8779,-5.8802,-5.8845,-5.886,-5.8919,-5.8931,-5.8942,-5.8945,-5.8941,-5.894,-5.8957,-5.8953,-5.895,-5.895,-5.8949,-5.8949,0,-5.8418,-5.8446,-5.8514,-5.8564,-5.8578,-5.8619,-5.8661,-5.8698,-5.872,-5.8774,-5.8788,-5.8821,-5.8872,-5.8895,-5.8957,-5.8967,-5.9035,-5.9035,-5.9022,-5.9023,-5.9059,-5.9055,-5.917,-5.9186,-5.9096,-5.9097,-5.9098,0,-5.8462,-5.8504,-5.8559,-5.8589,-5.8615,-5.8663,-5.8695,-5.8718,-5.875,-5.8802,-5.8833,-5.8885,-5.8928,-5.9009,-5.9038,-5.9086,-5.9087,-5.9124,-5.9094,-5.9089,-5.9088,-5.9085,-5.909,-5.9129,-5.913,-5.9131,-5.9131,0,-5.8538,-5.8551,-5.8597,-5.865,-5.8688,-5.8729,-5.877,-5.8794,-5.8823,-5.8859,-5.8913,-5.8946,-5.9012,-5.9063,-5.9113,-5.9137,-5.9139,-5.9141,-5.9152,-5.9148,-5.9139,-5.9145,-5.9037,-5.9138,-5.9137,-5.9137,-5.9136,-5.9136,-5.8589,-5.8627,-5.8672,-5.8724,-5.8758,-5.8797,-5.8835,-5.8862,-5.8908,-5.8965,-5.8975,-5.9032,-5.9074,-5.9142,-5.9169,-5.9213,-5.9204,-5.922,-5.9224,-5.9228,-5.923,-5.9133,-5.9222,-5.9222,-5.9222,-5.9222,-5.9222,0,-5.8666,-5.8696,-5.8744,-5.8803,-5.8844,-5.8845,-5.889,-5.8924,-5.8975,-5.9015,-5.9058,-5.912,-5.9171,-5.9205,-5.9256,-5.9285,-5.9287,-5.9298,-5.9295,-5.9301,-5.9235,-5.9221,-5.9295,-5.9295,-5.9295,-5.9295,-5.9295,-5.9295,-5.8711,-5.8775,-5.8793,-5.8874,-5.8903,-5.8962,-5.8988,-5.9023,-5.9055,-5.9126,-5.9169,-5.9191,-5.9229,-5.9283,-5.933,-5.9339,-5.9357,-5.9368,-5.9376,-5.9313,-5.9306,-5.9298,-5.9285,-5.9372,-5.9372,-5.9439,-5.9439,-5.944]}]]